Regional Weather Roundup
Issued by NWS

Home | Current Version | Previous Version | Graphics & Text | Print | Product List | Glossary On
Versions: 1 2 3 4 5 6 7 8 9 10 11 12 13 14 15 16 17 18 19 20 21 22 23 24 25 26 27 28 29 30 31 32 33 34 35 36 37 38 39 40 41 42 43 44 45 46 47 48 49 50
000
ASUS43 KOAX 221010
RWRNE

WEATHER ROUNDUP FOR NEBRASKA
NATIONAL WEATHER SERVICE OMAHA NE
400 AM CST WED FEB 22 2017

NOTES: SATELLITE DATA IS BEING USED TO AUGMENT CLOUD COVER ABOVE
       12000 FEET.
       "FAIR" INDICATES FEW OR NO CLOUDS BELOW 12,000 FEET WITH NO
       SIGNIFICANT WEATHER AND/OR OBSTRUCTIONS TO VISIBILITY.

  * THESE STATIONS DO NOT REPORT WEATHER SUCH AS RAIN...SNOW OR FOG.

NEZ001>004-019>022-054>056-221100-
NEBRASKA PANHANDLE

CITY           SKY/WX    TMP DP  RH WIND       PRES   REMARKS
SCOTTSBLUFF    CLEAR     41  32  70 W8        29.85S
ALLIANCE       CLEAR     41  32  70 W13       29.80F
CHADRON        PTCLDY    44  35  70 W13       29.76F
KIMBALL        CLEAR     41  35  78 NW14G20   29.87S
SIDNEY         CLEAR     43  31  62 NW16      29.85R
$$

NEZ057>060-069>072-079>082-221100-
SOUTHWEST NEBRASKA

CITY           SKY/WX    TMP DP  RH WIND       PRES   REMARKS
NORTH PLATTE   CLEAR     29  24  82 NW8       29.73F WCI  21
IMPERIAL       CLOUDY    47  16  29 W10       29.78S
LEXINGTON      CLEAR     36  28  74 W12       29.69F WCI  27
MCCOOK         CLOUDY    42  24  49 W6        29.73S
OGALLALA       CLOUDY    46  29  50 NW15      29.79R
$$

NEZ005>010-023>029-035>040-094-221100-
NORTH CENTRAL NEBRASKA

CITY           SKY/WX    TMP DP  RH WIND       PRES   REMARKS
VALENTINE      PTCLDY    41  31  67 W10       29.73F
AINSWORTH      CLEAR     42  32  67 NW9       29.71R
BROKEN BOW     CLEAR     43  28  55 N8        29.69F
O`NEILL        CLEAR     48  31  52 W6        29.65F
ORD            CLEAR     39  29  67 CALM      29.67S
THEDFORD       CLEAR     38  28  66 W5        29.73R WCI  34
$$

NEZ041-046>049-061>064-073>077-083>087-221100-
SOUTH CENTRAL NEBRASKA

CITY           SKY/WX    TMP DP  RH WIND       PRES   REMARKS
GRAND ISLAND   CLEAR     45  30  55 S7        29.67F
AURORA         CLEAR     46  29  52 S8        29.68F
HASTINGS       CLEAR     48  27  44 S3        29.69F
HEBRON         CLEAR     50  34  53 S16       29.71F
HOLDREGE       CLOUDY    42  25  50 SW3       29.68F
KEARNEY *      CLEAR     37  25  60 S7        29.68F WCI  32
YORK           CLEAR     41  30  65 S10       29.69F
$$

NEZ011>018-030>034-042>045-221100-
NORTHEAST NEBRASKA

CITY           SKY/WX    TMP DP  RH WIND       PRES   REMARKS
NORFOLK        CLEAR     38  31  76 S8        29.65F WCI  32
ALBION         PTCLDY    40  32  71 CALM      29.68R
BLAIR          CLEAR     50  36  58 S12       29.69S
FREMONT        CLEAR     49  33  53 S5        29.69F
TEKAMAH        CLEAR     45  35  68 S10       29.67F
WAYNE          CLEAR     36  32  87 CALM      29.64F
$$

NEZ050>053-065>068-078-088>093-221100-
SOUTHEAST NEBRASKA

CITY           SKY/WX    TMP DP  RH WIND       PRES   REMARKS
LINCOLN        CLEAR     45  34  65 SE8       29.74F
OMAHA EPPLEY   CLEAR     46  34  62 S13       29.70F
BEATRICE       CLEAR     50  36  59 S10       29.73F
FALLS CITY     CLEAR     50  34  54 S8        29.75F
NEBRASKA CITY  CLEAR     51  30  45 SW14      29.72F
PLATTSMOUTH    CLEAR     50  32  48 S3        29.73R
$$

NEZ044-045-051>053-067-221100-
OMAHA AREA

CITY           SKY/WX    TMP DP  RH WIND       PRES   REMARKS
OMAHA EPPLEY   CLEAR     46  34  62 S13       29.70F
BLAIR          CLEAR     50  36  58 S12       29.69S
FREMONT        CLEAR     49  33  53 S5        29.69F
MILLARD        CLEAR     53  37  55 S7        29.71S
OFFUTT AFB     CLEAR     43  33  68 E7        29.72F
PLATTSMOUTH    CLEAR     50  32  48 S3        29.73R
WAHOO          FAIR      46  33  61 S9        29.69F
$$




USA.gov is the U.S. government's official web portal to all federal, state and local government web resources and services.